Weather History for Sherman-Denison, TX

Change the Weather History Date:

Sunday, August 24, 2014

  Actual Average (KDFW) Record (KDFW)
Temperature  
Mean Temperature 86 °F 85 °F  
Max Temperature 97 °F 95 °F 106 °F (2011)
Min Temperature 76 °F 75 °F 60 °F (1961)
Degree Days  
Heating Degree Days 0 0  
Month to date heating degree days 0  
Since 1 June heating degree days 0  
Since 1 July heating degree days 0  
Cooling Degree Days 22 20  
Month to date cooling degree days 500  
Year to date cooling degree days 2044  
Since 1 June cooling degree days 1622  
Growing Degree Days 36 (Base 50)    
Moisture  
Dew Point 65 °F    
Average Humidity 49    
Maximum Humidity 75    
Minimum Humidity 30    
Precipitation  
Precipitation 0.00 in 0.06 in 2.01 in (1942)
Month to date precipitation 1.36  
Year to date precipitation 23.56  
Sea Level Pressure  
Sea Level Pressure 29.93 in    
Wind  
Wind Speed 10 mph (SSE)    
Max Wind Speed 16 mph    
Max Gust Speed 21 mph    
Visibility 10 miles    
Events      
T = Trace of Precipitation, MM = Missing Value Source: NWS Daily Summary

Daily Weather History Graph

Daily Weather History Graph

Search for Another Location

Airport:

Trip Planner

Search our weather history database for the weather conditions in past years. The results will help you decide how hot, cold, wet, or windy it might be!

Date:

Astronomy

Aug. 24, 2014 Rise Set
Actual Time 6:55 AM CDT 8:02 PM CDT
Civil Twilight 6:29 AM CDT 8:28 PM CDT
Nautical Twilight 5:58 AM CDT 8:58 PM CDT
Astronomical Twilight 5:26 AM CDT 9:30 PM CDT
Moon 6:06 AM CDT (8/24) 7:22 PM CDT (8/24)
Length of Visible Light 13h 58m
Length of Day
13h 07m
Waning Crescent, 1% of the Moon is Illuminated
Aug 24
Waning Crescent
Aug 25
New
Sep 2
First Quarter
Sep 8
Full
Sep 15
Last Quarter

Hourly Weather History & Observations

Time (CDT) Temp. Heat Index Dew Point Humidity Pressure Visibility Wind Dir Wind Speed Gust Speed Precip Events Conditions
12:15 AM 82.8 °F 84.5 °F 64.9 °F 55% 29.93 in 10.0 mi SSE 10.4 mph - N/A   Clear
12:35 AM 82.2 °F 84.0 °F 65.3 °F 56% 29.93 in 10.0 mi SSE 9.2 mph - N/A   Clear
12:55 AM 81.7 °F 83.6 °F 65.5 °F 58% 29.93 in 10.0 mi SE 10.4 mph - N/A   Clear
1:15 AM 81.3 °F 83.3 °F 65.7 °F 59% 29.93 in 10.0 mi SE 9.2 mph - N/A   Clear
1:35 AM 80.8 °F 82.8 °F 65.8 °F 60% 29.93 in 10.0 mi SE 9.2 mph - N/A   Clear
1:55 AM 80.6 °F 82.7 °F 66.2 °F 61% 29.93 in 10.0 mi SE 9.2 mph - N/A   Clear
2:15 AM 81.0 °F 83.2 °F 66.2 °F 61% 29.93 in 10.0 mi SSE 11.5 mph - N/A   Clear
2:35 AM 80.6 °F 82.8 °F 66.4 °F 62% 29.93 in 10.0 mi SE 11.5 mph - N/A   Clear
2:55 AM 80.1 °F 82.2 °F 66.6 °F 63% 29.93 in 10.0 mi SSE 11.5 mph - N/A   Clear
3:15 AM 79.7 °F - 67.1 °F 65% 29.93 in 10.0 mi SSE 11.5 mph - N/A   Clear
3:35 AM 79.7 °F - 67.1 °F 65% 29.93 in 10.0 mi SSE 10.4 mph - N/A   Clear
3:55 AM 79.2 °F - 67.5 °F 67% 29.93 in 10.0 mi SSE 10.4 mph - N/A   Clear
4:15 AM 78.4 °F - 67.6 °F 69% 29.93 in 10.0 mi South 9.2 mph - N/A   Clear
4:35 AM 77.9 °F - 68.0 °F 71% 29.93 in 10.0 mi South 9.2 mph - N/A   Clear
4:55 AM 77.7 °F - 68.0 °F 72% 29.93 in 10.0 mi South 9.2 mph - N/A   Clear
5:15 AM 77.0 °F - 68.0 °F 74% 29.93 in 10.0 mi South 8.1 mph - N/A   Clear
5:35 AM 77.7 °F - 68.2 °F 72% 29.94 in 10.0 mi South 9.2 mph - N/A   Clear
5:55 AM 77.0 °F - 68.4 °F 75% 29.94 in 10.0 mi SSE 8.1 mph - N/A   Clear
6:15 AM 77.0 °F - 68.2 °F 74% 29.95 in 10.0 mi SSE 8.1 mph - N/A   Clear
6:35 AM 76.5 °F - 68.2 °F 75% 29.95 in 10.0 mi SSE 8.1 mph - N/A   Clear
6:55 AM 76.6 °F - 68.2 °F 75% 29.95 in 10.0 mi SSE 8.1 mph - N/A   Clear
7:15 AM 77.0 °F - 68.0 °F 74% 29.96 in 10.0 mi SSE 6.9 mph - N/A   Clear
7:35 AM 77.0 °F - 68.0 °F 74% 29.96 in 10.0 mi South 6.9 mph - N/A   Clear
7:55 AM 78.4 °F - 68.0 °F 70% 29.96 in 10.0 mi South 8.1 mph - N/A   Clear
8:15 AM 80.6 °F 83.2 °F 68.0 °F 65% 29.96 in 10.0 mi South 9.2 mph - N/A   Clear
8:35 AM 82.8 °F 85.5 °F 67.6 °F 60% 29.96 in 10.0 mi South 10.4 mph - N/A   Clear
8:55 AM 84.2 °F 86.8 °F 66.9 °F 56% 29.97 in 10.0 mi South 11.5 mph - N/A   Clear
9:15 AM 84.9 °F 87.1 °F 66.0 °F 53% 29.97 in 10.0 mi SSW 10.4 mph - N/A   Clear
9:35 AM 86.0 °F 87.9 °F 65.1 °F 50% 29.97 in 10.0 mi SSW 10.4 mph 16.1 mph N/A   Clear
9:55 AM 86.9 °F 88.3 °F 64.6 °F 47% 29.98 in 10.0 mi SSW 13.8 mph - N/A   Clear
10:15 AM 88.5 °F 89.5 °F 63.7 °F 43% 29.98 in 10.0 mi SSW 10.4 mph 16.1 mph N/A   Clear
10:35 AM 90.0 °F 90.6 °F 63.0 °F 40% 29.98 in 10.0 mi SSW 12.7 mph 17.3 mph N/A   Clear
10:55 AM 91.0 °F 91.5 °F 62.1 °F 38% 29.98 in 10.0 mi South 13.8 mph 20.7 mph N/A   Clear
11:15 AM 91.0 °F 92.2 °F 63.3 °F 40% 29.98 in 10.0 mi South 16.1 mph - N/A   Clear
11:35 AM 92.3 °F 93.4 °F 63.5 °F 38% 29.98 in 10.0 mi SSW 16.1 mph - N/A   Clear
11:55 AM 91.9 °F 93.3 °F 63.7 °F 39% 29.98 in 10.0 mi SSW 12.7 mph - N/A   Clear
12:15 PM 93.6 °F 95.5 °F 64.4 °F 38% 29.97 in 10.0 mi South 10.4 mph 16.1 mph N/A   Clear
12:35 PM 93.9 °F 95.6 °F 63.9 °F 37% 29.97 in 10.0 mi SW 10.4 mph 18.4 mph N/A   Clear
12:55 PM 94.6 °F 95.9 °F 63.1 °F 35% 29.96 in 10.0 mi South 13.8 mph 18.4 mph N/A   Clear
1:15 PM 95.0 °F 96.0 °F 62.6 °F 34% 29.96 in 10.0 mi SSE 10.4 mph 18.4 mph N/A   Clear
1:35 PM 95.0 °F 97.0 °F 64.4 °F 36% 29.95 in 10.0 mi South 8.1 mph - N/A   Clear
1:55 PM 96.1 °F 97.3 °F 63.0 °F 33% 29.95 in 10.0 mi SSE 8.1 mph - N/A   Clear
2:15 PM 96.6 °F 98.2 °F 63.3 °F 33% 29.95 in 10.0 mi South 6.9 mph - N/A   Clear
2:35 PM 97.0 °F 98.3 °F 62.8 °F 32% 29.94 in 10.0 mi South 5.8 mph 16.1 mph N/A   Scattered Clouds
2:55 PM 96.6 °F 98.2 °F 63.0 °F 33% 29.93 in 10.0 mi South 6.9 mph - N/A   Scattered Clouds
3:15 PM 96.1 °F 96.4 °F 61.3 °F 31% 29.92 in 10.0 mi SSE 4.6 mph - N/A   Clear
3:35 PM 97.9 °F 99.3 °F 62.6 °F 31% 29.91 in 10.0 mi SSE 9.2 mph - N/A   Scattered Clouds
3:55 PM 96.1 °F 96.9 °F 61.7 °F 32% 29.91 in 10.0 mi ESE 11.5 mph 17.3 mph N/A   Scattered Clouds
4:15 PM 97.5 °F 98.7 °F 62.4 °F 31% 29.90 in 10.0 mi South 9.2 mph 16.1 mph N/A   Clear
4:35 PM 97.2 °F 98.1 °F 61.9 °F 31% 29.90 in 10.0 mi SE 11.5 mph 16.1 mph N/A   Clear
4:55 PM 97.2 °F 98.1 °F 62.1 °F 31% 29.90 in 10.0 mi SSE 10.4 mph - N/A   Clear
5:15 PM 97.2 °F 97.6 °F 60.8 °F 30% 29.90 in 10.0 mi SSE 10.4 mph 16.1 mph N/A   Clear
5:35 PM 97.3 °F 97.9 °F 61.0 °F 30% 29.89 in 10.0 mi SE 10.4 mph 16.1 mph N/A   Clear
5:55 PM 96.1 °F 96.4 °F 61.0 °F 31% 29.89 in 10.0 mi SSE 9.2 mph - N/A   Clear
6:15 PM 96.3 °F 96.7 °F 61.2 °F 31% 29.88 in 10.0 mi SE 8.1 mph - N/A   Clear
6:35 PM 95.7 °F 96.7 °F 62.4 °F 33% 29.88 in 10.0 mi SE 9.2 mph - N/A   Clear
6:55 PM 95.2 °F 96.3 °F 62.6 °F 34% 29.88 in 10.0 mi SSE 8.1 mph - N/A   Clear
7:15 PM 94.3 °F 95.3 °F 62.4 °F 35% 29.88 in 10.0 mi SE 9.2 mph - N/A   Clear
7:35 PM 93.2 °F 94.1 °F 62.6 °F 36% 29.88 in 10.0 mi SE 8.1 mph - N/A   Clear
7:55 PM 91.8 °F 93.0 °F 63.3 °F 39% 29.88 in 10.0 mi ESE 5.8 mph - N/A   Clear
8:15 PM 90.1 °F 91.2 °F 63.7 °F 41% 29.89 in 10.0 mi ESE 5.8 mph - N/A   Clear
8:35 PM 89.8 °F 90.7 °F 63.5 °F 41% 29.89 in 10.0 mi SE 8.1 mph - N/A   Clear
8:55 PM 89.6 °F 90.4 °F 63.0 °F 41% 29.90 in 10.0 mi ESE 6.9 mph - N/A   Clear
9:15 PM 89.2 °F 89.9 °F 62.8 °F 41% 29.91 in 10.0 mi SE 8.1 mph - N/A   Clear
9:35 PM 88.9 °F 89.4 °F 62.4 °F 41% 29.92 in 10.0 mi SE 9.2 mph - N/A   Clear
9:55 PM 88.3 °F 88.9 °F 62.6 °F 42% 29.93 in 10.0 mi SE 9.2 mph - N/A   Clear
10:15 PM 87.8 °F 88.5 °F 63.0 °F 43% 29.94 in 10.0 mi SE 10.4 mph - N/A   Clear
10:35 PM 86.9 °F 87.8 °F 63.5 °F 45% 29.94 in 10.0 mi SE 10.4 mph - N/A   Clear
10:55 PM 86.9 °F 88.1 °F 63.7 °F 46% 29.95 in 10.0 mi SE 10.4 mph - N/A   Clear
11:15 PM 86.0 °F 87.3 °F 64.4 °F 48% 29.95 in 10.0 mi SE 11.5 mph - N/A   Clear
11:35 PM 85.1 °F 86.9 °F 64.9 °F 51% 29.96 in 10.0 mi SSE 10.4 mph - N/A   Clear
11:55 PM 84.4 °F 86.1 °F 64.9 °F 52% 29.96 in 10.0 mi SE 10.4 mph - N/A   Clear